Peawanuck AWS, Ontario

6:56 AM EST on February 25, 2017 (GMT -0500)
Peawanuck

Weather History for CWWN - July, 2013

Change the Weather History Date:

Thursday, July 25, 2013

  Actual Average Record
Temperature  
Mean Temperature 48 °F -  
Max Temperature 54 °F - - ()
Min Temperature 39 °F - - ()
Degree Days  
Heating Degree Days 18    
Moisture  
Dew Point 41 °F    
Average Humidity 78    
Maximum Humidity 98    
Minimum Humidity 51    
Precipitation  
Precipitation 0.00 in - - ()
Sea Level Pressure  
Sea Level Pressure 30.15 in    
Wind  
Wind Speed 4 mph ()    
Max Wind Speed 9 mph    
Max Gust Speed -    
T = Trace of Precipitation, MM = Missing Value Source: Averaged Metar Reports

Daily Weather History Graph

Daily Weather History Graph

Search for Another Location

Airport or City:

Trip Planner

Search our weather history database for the weather conditions in past years. The results will help you decide how hot, cold, wet, or windy it might be!

Date:

Astronomy

Jul. 25, 2013 Rise Set
Actual Time 5:39 AM EDT 9:56 PM EDT
Civil Twilight 4:50 AM EDT 10:44 PM EDT
Nautical Twilight 3:35 AM EDT 11:58 PM EDT
Astronomical Twilight 2:20 AM EDT 1:15 AM EDT
Moon 10:44 PM EDT 9:54 AM EDT
Length of Visible Light 17h 54m
Length of Day
16h 17m
Waning Gibbous, 88% of the Moon is Illuminated
Jul 25
Waning Gibbous
Jul 29
Last Quarter
Aug 6
New
Aug 14
First Quarter
Aug 20
Full

Hourly Weather History & Observations

Time (EDT) Temp. Windchill Dew Point Humidity Pressure Visibility Wind Dir Wind Speed Gust Speed Precip Events Conditions
12:00 AM 46.0 °F 44.8 °F 40.1 °F 80% 30.01 in - South 3.5 mph - N/A   Unknown
1:00 AM 45.5 °F - 40.1 °F 81% 30.02 in - SW 2.3 mph - N/A   Unknown
2:00 AM 45 °F - 40 °F 76% 30.03 in - WSW 2.3 mph - -  
2:00 AM 45.1 °F - 40.1 °F 82% 30.03 in - WSW 2.3 mph - N/A   Unknown
3:00 AM 45.3 °F - 41.2 °F 85% 30.04 in - NNW 2.3 mph - N/A   Unknown
4:00 AM 44.8 °F - 41.4 °F 88% 30.05 in - North 2.3 mph - N/A   Unknown
5:00 AM 44.2 °F 42.7 °F 41.5 °F 90% 30.06 in - North 3.5 mph - N/A   Unknown
6:00 AM 43.5 °F - 42.3 °F 95% 30.08 in - North 2.3 mph - N/A   Unknown
7:00 AM 41.7 °F 38.8 °F 40.8 °F 97% 30.10 in - North 4.6 mph - N/A   Unknown
8:00 AM 42 °F - 41 °F 96% 30.11 in - North 2.3 mph - -  
8:00 AM 41.9 °F - 41.4 °F 98% 30.11 in - North 1.2 mph - N/A   Unknown
9:00 AM 42.8 °F 40.1 °F 40.8 °F 93% 30.13 in - North 4.6 mph - N/A   Unknown
10:00 AM 44.2 °F 40.3 °F 40.6 °F 87% 30.15 in - North 6.9 mph - N/A   Unknown
11:00 AM 45.7 °F 44.4 °F 41.0 °F 84% 30.17 in - ENE 3.5 mph - N/A   Unknown
12:00 PM 48.0 °F - 41.9 °F 79% 30.18 in - NE 4.6 mph - N/A   Unknown
1:00 PM 50.4 °F - 42.4 °F 74% 30.18 in - ENE 5.8 mph - N/A   Unknown
2:00 PM 53.6 °F - 43.7 °F 69% 30.19 in - East 4.6 mph - N/A   Unknown
3:00 PM 52.9 °F - 42.3 °F 67% 30.20 in - NNE 4.6 mph - N/A   Unknown
4:00 PM 52.2 °F - 41.5 °F 67% 30.22 in - ENE 8.1 mph - N/A   Unknown
5:00 PM 53.4 °F - 41.0 °F 63% 30.22 in - ENE 8.1 mph - N/A   Unknown
6:00 PM 53.6 °F - 39.7 °F 59% 30.23 in - ENE 8.1 mph - N/A   Unknown
7:00 PM 52.7 °F - 36.0 °F 53% 30.25 in - NE 9.2 mph - N/A   Unknown
8:00 PM 52 °F - 39 °F 51% 30.25 in - NE 8.1 mph - -  
8:00 PM 52.3 °F - 39.2 °F 61% 30.25 in - NE 8.1 mph - N/A   Unknown
9:00 PM 49.6 °F - 39.7 °F 69% 30.26 in - NE 6.9 mph - N/A   Unknown
10:00 PM 45.3 °F 43.0 °F 39.2 °F 79% 30.27 in - NE 4.6 mph - N/A   Unknown
11:00 PM 39.9 °F 37.8 °F 37.8 °F 92% 30.28 in - NE 3.5 mph - N/A   Unknown